Location: Earls Croome
(52.0667°N, 2.2000°W)
Time: 16:39:28
(UTC+00:00)

SKYMED 2 - Pass Details

Date: 17 November 2019
Orbit: 621 x 623 km, 97.9° (Epoch: 15 December)

Event Time Altitude Azimuth Distance (km) Brightness Sun altitude
Rises 06:01:54 0° 193° (SSW) 2,894 7.0 -13.6°
Reaches altitude 10° 06:04:19 10° 204° (SSW) 1,992 6.1 -13.2°
Maximum altitude 06:08:07 29° 266° (W) 1,149 4.4 -12.7°
Drops below altitude 10° 06:11:56 10° 327° (NNW) 2,006 5.7 -12.1°
Enters shadow 06:12:09 - 328° (NNW) 2,081 5.8 -12.1°
